This demonstration page uses our WeatherBlox Daily Observations layout. Learn more.

Hourly Observations for March 15, 2020

Temp ( °F °C ) Dew Point ( °F °C ) Humidity (%) Winds ( mph kmh ) Pressure ( in mb ) Visibility ( mi km ) Precip ( " mm )
12:15 am 00:15 Cloudy 37 3 37 3 100 100 NE 5 7 30.43 1030 10 16.0934 0.01 0.254
12:35 am 00:35 Cloudy 37 3 37 3 100 100 NE 6 9 30.43 1030 5 8.0467 0.03 0.762
12:55 am 00:55 Cloudy 37 3 37 3 100 100 NE 12 19 30.44 1031 10 16.0934 0.04 1.016
1:15 am 01:15 Cloudy 37 3 37 3 100 100 NE 9 15 30.43 1030 7 11.26538 0.01 0.254
1:35 am 01:35 Cloudy 37 3 37 3 100 100 NNE 5 7 30.44 1031 7 11.26538 0.02 0.508
1:55 am 01:55 Cloudy 36 2 36 2 100 100 NE 5 7 30.44 1031 10 16.0934 0.03 0.762
2:15 am 02:15 Cloudy 36 2 36 2 100 100 NE 7 11 30.43 1030 7 11.26538 0 0
2:35 am 02:35 Cloudy 36 2 36 2 100 100 NE 6 9 30.43 1030 5 8.0467 0.01 0.254
2:55 am 02:55 Cloudy 36 2 36 2 100 100 NE 7 11 30.43 1030 5 8.0467 0.02 0.508
3:15 am 03:15 Cloudy 36 2 36 2 100 100 NE 3 6 30.42 1030 7 11.26538 0 0
3:35 am 03:35 Cloudy 36 2 36 2 100 100 NE 6 9 30.42 1030 7 11.26538 0.01 0.254
3:55 am 03:55 Cloudy 36 2 36 2 100 100 NNE 5 7 30.42 1030 5 8.0467 0.01 0.254
4:15 am 04:15 Cloudy 36 2 36 2 100 100 NE 6 9 30.41 1030 5 8.0467 0.01 0.254
4:35 am 04:35 Cloudy 36 2 36 2 100 100 NE 5 7 30.41 1030 5 8.0467 0.02 0.508
4:55 am 04:55 Cloudy 36 2 36 2 100 100 NNE 5 7 30.42 1030 7 11.26538 0.03 0.762
5:15 am 05:15 Cloudy 36 2 36 2 100 100 ENE 3 6 30.43 1030 5 8.0467 0 0
5:35 am 05:35 Cloudy 36 2 36 2 100 100 NE 5 7 30.42 1030 5 8.0467 0.01 0.254
5:55 am 05:55 Cloudy 36 2 36 2 100 100 NNE 3 6 30.43 1030 5 8.0467 0.01 0.254
6:15 am 06:15 Cloudy 36 2 36 2 100 100 NNE 5 7 30.44 1031 5 8.0467 0 0
6:35 am 06:35 Cloudy 36 2 36 2 100 100 NNE 6 9 30.44 1031 5 8.0467 0.01 0.254
6:55 am 06:55 Cloudy 36 2 36 2 100 100 NNE 8 13 30.45 1031 4 6.43736 0.01 0.254
7:15 am 07:15 Cloudy 36 2 36 2 100 100 NNE 8 13 30.45 1031 5 8.0467 0 0
7:35 am 07:35 Cloudy 36 2 36 2 100 100 NNE 7 11 30.46 1031 5 8.0467 0 0
7:55 am 07:55 Cloudy 36 2 36 2 100 100 NNE 6 9 30.47 1032 4 6.43736 0 0
8:15 am 08:15 Cloudy 36 2 36 2 100 100 NNE 7 11 30.47 1032 5 8.0467 0.01 0.254
8:35 am 08:35 Cloudy 36 2 36 2 100 100 NNE 6 9 30.48 1032 5 8.0467 0.01 0.254
8:55 am 08:55 Cloudy 36 2 36 2 100 100 NNE 8 13 30.48 1032 7 11.26538 0.01 0.254
9:15 am 09:15 Cloudy 36 2 36 2 100 100 NNE 7 11 30.49 1032 7 11.26538 0 0
9:35 am 09:35 Cloudy 36 2 36 2 100 100 NNE 5 7 30.49 1032 7 11.26538 0 0
9:55 am 09:55 Cloudy 36 2 36 2 100 100 NNE 5 7 30.5 1033 10 16.0934 0 0
10:15 am 10:15 Cloudy 37 3 37 3 100 100 NNE 5 7 30.51 1033 10 16.0934 0.01 0.254
10:35 am 10:35 Cloudy 37 3 37 3 100 100 NE 6 9 30.51 1033 10 16.0934 0.01 0.254
10:55 am 10:55 Cloudy 37 3 37 3 100 100 NE 8 13 30.51 1033 10 16.0934 0.01 0.254
11:15 am 11:15 Cloudy 39 4 37 3 93 93 NE 10 17 30.51 1033 10 16.0934 0 0
11:35 am 11:35 Cloudy 41 5 37 3 87 87 NE 8 13 30.5 1033 10 16.0934 0 0
11:55 am 11:55 Cloudy 41 5 37 3 87 87 NE 3 6 30.52 1034 10 16.0934 0 0
12:15 pm 12:15 Cloudy 41 5 37 3 87 87 NE 6 9 30.51 1033 10 16.0934 0 0
12:35 pm 12:35 Cloudy 41 5 37 3 87 87 NE 6 9 30.51 1033 10 16.0934 0 0
12:55 pm 12:55 Cloudy 43 6 37 3 81 81 NE 3 6 30.51 1033 10 16.0934 0 0
1:15 pm 13:15 Cloudy 45 7 37 3 76 76 Calm 30.5 1033 10 16.0934 0 0
1:35 pm 13:35 Cloudy 45 7 37 3 76 76 NNE 6 9 30.49 1033 10 16.0934 0 0
1:55 pm 13:55 Cloudy 45 7 37 3 76 76 N 5 7 30.48 1032 10 16.0934 0 0
2:15 pm 14:15 Cloudy 45 7 36 2 71 71 NNE 6 9 30.47 1032 10 16.0934 0 0
2:35 pm 14:35 Cloudy 45 7 37 3 76 76 NNE 6 9 30.47 1032 10 16.0934 0 0
2:55 pm 14:55 Cloudy 45 7 36 2 71 71 N 7 11 30.47 1032 10 16.0934 0 0
3:15 pm 15:15 Cloudy 46 8 37 3 71 71 NNE 8 13 30.46 1031 10 16.0934 0 0
3:35 pm 15:35 Cloudy 46 8 36 2 66 66 NNE 7 11 30.46 1031 10 16.0934 0 0
3:55 pm 15:55 Cloudy 46 8 36 2 66 66 ENE 3 6 30.46 1031 10 16.0934 0 0
4:15 pm 16:15 Cloudy 46 8 36 2 66 66 ENE 3 6 30.47 1032 10 16.0934 0 0
4:35 pm 16:35 Cloudy 46 8 36 2 66 66 Calm 30.47 1032 10 16.0934 0 0
4:55 pm 16:55 Cloudy 46 8 36 2 66 66 Calm 30.47 1032 10 16.0934 0 0
5:15 pm 17:15 Cloudy 46 8 36 2 66 66 NE 3 6 30.47 1032 10 16.0934 0 0
5:35 pm 17:35 Cloudy 46 8 36 2 66 66 NE 3 6 30.47 1032 10 16.0934 0 0
5:55 pm 17:55 Cloudy 46 8 36 2 66 66 Calm 30.47 1032 10 16.0934 0 0
6:15 pm 18:15 Mostly Cloudy 46 8 36 2 66 66 Calm 30.47 1032 10 16.0934 0 0
6:35 pm 18:35 Partly Cloudy 46 8 34 1 62 62 Calm 30.47 1032 10 16.0934 0 0
6:55 pm 18:55 Partly Cloudy 46 8 36 2 66 66 W 3 6 30.47 1032 10 16.0934 0 0
7:15 pm 19:15 Partly Cloudy 45 7 36 2 71 71 WNW 5 7 30.48 1032 10 16.0934 0 0
7:35 pm 19:35 Clear 43 6 36 2 76 76 WNW 3 6 30.48 1032 10 16.0934 0 0
8:15 pm 20:15 Clear 41 5 36 2 81 81 WNW 3 6 30.48 1032 10 16.0934 0 0
8:35 pm 20:35 Clear 39 4 36 2 87 87 W 5 7 30.5 1033 10 16.0934 0 0
8:55 pm 20:55 Clear 39 4 37 3 93 93 WNW 3 6 30.5 1033 10 16.0934 0 0
9:15 pm 21:15 Clear 37 3 36 2 93 93 W 5 7 30.5 1033 10 16.0934 0 0
9:35 pm 21:35 Clear 37 3 36 2 93 93 W 3 6 30.51 1033 10 16.0934 0 0
9:55 pm 21:55 Clear 36 2 34 1 93 93 W 3 6 30.5 1033 10 16.0934 0 0
10:15 pm 22:15 Clear 36 2 36 2 100 100 W 3 6 30.51 1033 10 16.0934 0 0
10:35 pm 22:35 Clear 36 2 34 1 93 93 W 3 6 30.51 1033 10 16.0934 0 0
10:55 pm 22:55 Clear 36 2 34 1 93 93 W 5 7 30.51 1033 10 16.0934 0 0
11:15 pm 23:15 Clear 36 2 34 1 93 93 W 5 7 30.51 1033 10 16.0934 0 0
11:35 pm 23:35 Clear 34 1 34 1 100 100 WNW 3 6 30.52 1034 10 16.0934 0 0
11:55 pm 23:55 Clear 34 1 34 1 100 100 WNW 5 7 30.52 1034 10 16.0934 0 0

Powered by AerisWeather